STARLINK-37614, 69041

Orbit data source: Space-Track

STARLINK-37614, 69041 is a payload satellite owned by SpaceX/Seattle (US) in SSO that was launched on Wed, 06 May 2026 UTC via an FALCON 9 launch vehicle from the Air Force Western Test Range (AFWTR). Payload-class satellites include a variety of spacecraft equipped with specific instruments for various scientific and technological missions. These include communications satellites like Starlink; space stations such as the ISS; scientific satellites like the Hubble; Earth observation satellites from companies like Planet Labs, Umbra, and HawkEye 360; GPS; miniature CubeSats for education and research; and military/defense satellites.

Loading next visibility...
Identifier
69041, 2026-101S
Orbit
SSO
Country
Flag of USUS
Related business
Manufacturer
SpaceX/Seattle
Mission
Operational spacecraft
Bus & Motor
STARLINK V2MO, Unknown motor
Mass
575 kg wet, ~530 kg dry
Launch date (UTC)
2026-05-06 (1 month ago)
Launch vehicle
FALCON 9
Launch site
Air Force Western Test Range (AFWTR)
Object type
Payload
Rocket body
Debris
Shape & HBR
Unknown
Radar Cross Section
Large (>1 m²)

Expand to show TLE details & history
Last TLE update: 1 week ago

TLE from 1 week ago
0 STARLINK-37614
1 69041U 26101S   26155.17905459  .00095386  00000-0  17338-2 0  9994
2 69041  97.2840  10.1279 0001758 106.0910 254.0535 15.49197882  4574
Epoch: 2026-06-04T04:17Z
TLE epoch observation values (Epoch: 2026-06-04T04:17:50.316Z)
Latitude
-0.00002°
Longitude
53.04121°
Altitude
422.533 km
Speed
7.658 km/s
True Right ascension
00h 40m 30s
True Declination
0° 00' 00"
Sunlit
Object was in daylight at epoch
Visualization orbit readout
Latitude
Unknown
Longitude
Unknown
Altitude
Unknown
Speed
Unknown
Apparent Right ascension
Unknown
Apparent Declination
Unknown
Sunlit
N/A
Visualization observer readout
Local Sidereal Time
03:28:36
Azimuth
Unknown
Elevation
Unknown
Doppler factor
Unknown
Orbital elements
Apogee altitude
417.187 km
Perigee altitude
414.799 km
Semi-major axis
6,794.13 km
Eccentricity
0.00018
Inclination
97.284°
RAAN
10.1279°
Arg. of periapsis
106.091°
True anomaly
254.03413°
Mean anomaly
254.0535°
Eccentric anomaly
254.04382°
Mean motion
3.87563 °/min
Orbital period
92.89 mins
BSTAR
0.0017338
Loading maneuver chart data...
Computing Atmospheric mass density...
Loading historical data...
Loading historical data...
Loading historical data...
Loading historical data...
Loading historical data...
Loading historical data...
Loading historical data...

Documentation

Showing up to 5 results
|